Year,Month,Day,Hour,Minute,Value (Times are PST for temperature in C)
2013,04,23,00,00,3.90
2013,04,23,00,01,3.80
2013,04,23,00,02,3.80
2013,04,23,00,03,3.70
2013,04,23,00,04,3.70
2013,04,23,00,05,3.70
2013,04,23,00,06,3.60
2013,04,23,00,07,3.60
2013,04,23,00,08,3.60
2013,04,23,00,09,3.60
2013,04,23,00,10,3.60
2013,04,23,00,11,3.60
2013,04,23,00,12,3.60
2013,04,23,00,13,3.50
2013,04,23,00,14,3.50
2013,04,23,00,15,3.60
2013,04,23,00,16,3.60
2013,04,23,00,17,3.60
2013,04,23,00,18,3.60
2013,04,23,00,19,3.60
2013,04,23,00,20,3.60
2013,04,23,00,21,3.60
2013,04,23,00,22,3.60
2013,04,23,00,23,3.60
2013,04,23,00,24,3.50
2013,04,23,00,25,3.50
2013,04,23,00,26,3.40
2013,04,23,00,27,3.40
2013,04,23,00,28,3.40
2013,04,23,00,29,3.40
2013,04,23,00,30,3.40
2013,04,23,00,31,3.40
2013,04,23,00,32,3.50
2013,04,23,00,33,3.50
2013,04,23,00,34,3.50
2013,04,23,00,35,3.50
2013,04,23,00,36,3.50
2013,04,23,00,37,3.50
2013,04,23,00,38,3.60
2013,04,23,00,39,3.60
2013,04,23,00,40,3.60
2013,04,23,00,41,3.60
2013,04,23,00,42,3.60
2013,04,23,00,43,3.50
2013,04,23,00,44,3.50
2013,04,23,00,45,3.40
2013,04,23,00,46,3.40
2013,04,23,00,47,3.30
2013,04,23,00,48,3.30
2013,04,23,00,49,3.30
2013,04,23,00,50,3.30
2013,04,23,00,51,3.30
2013,04,23,00,52,3.40
2013,04,23,00,53,3.40
2013,04,23,00,54,3.30
2013,04,23,00,55,3.30
2013,04,23,00,56,3.30
2013,04,23,00,57,3.30
2013,04,23,00,58,3.30
2013,04,23,00,59,3.30
2013,04,23,01,00,3.30
2013,04,23,01,01,3.30
2013,04,23,01,02,3.30
2013,04,23,01,03,3.30
2013,04,23,01,04,3.30
2013,04,23,01,05,3.30
2013,04,23,01,06,3.30
2013,04,23,01,07,3.30
2013,04,23,01,08,3.30
2013,04,23,01,09,3.30
2013,04,23,01,10,3.30
2013,04,23,01,11,3.40
2013,04,23,01,12,3.40
2013,04,23,01,13,3.30
2013,04,23,01,14,3.30
2013,04,23,01,15,3.30
2013,04,23,01,16,3.30
2013,04,23,01,17,3.40
2013,04,23,01,18,3.40
2013,04,23,01,19,3.40
2013,04,23,01,20,3.40
2013,04,23,01,21,3.40
2013,04,23,01,22,3.40
2013,04,23,01,23,3.40
2013,04,23,01,24,3.40
2013,04,23,01,25,3.40
2013,04,23,01,26,3.40
2013,04,23,01,27,3.50
2013,04,23,01,28,3.50
2013,04,23,01,29,3.50
2013,04,23,01,30,3.50
2013,04,23,01,31,3.40
2013,04,23,01,32,3.40
2013,04,23,01,33,3.40
2013,04,23,01,34,3.40
2013,04,23,01,35,3.40
2013,04,23,01,36,3.40
2013,04,23,01,37,3.40
2013,04,23,01,38,3.50
2013,04,23,01,39,3.50
2013,04,23,01,40,3.50
2013,04,23,01,41,3.40
2013,04,23,01,42,3.40
2013,04,23,01,43,3.40
2013,04,23,01,44,3.40
2013,04,23,01,45,3.40
2013,04,23,01,46,3.40
2013,04,23,01,47,3.40
2013,04,23,01,48,3.40
2013,04,23,01,49,3.40
2013,04,23,01,50,3.40
2013,04,23,01,51,3.40
2013,04,23,01,52,3.30
2013,04,23,01,53,3.30
2013,04,23,01,54,3.30
2013,04,23,01,55,3.30
2013,04,23,01,56,3.30
2013,04,23,01,57,3.30
2013,04,23,01,58,3.30
2013,04,23,01,59,3.30
2013,04,23,02,00,3.30
2013,04,23,02,01,3.30
2013,04,23,02,02,3.30
2013,04,23,02,03,3.30
2013,04,23,02,04,3.30
2013,04,23,02,05,3.30
2013,04,23,02,06,3.30
2013,04,23,02,07,3.30
2013,04,23,02,08,3.30
2013,04,23,02,09,3.30
2013,04,23,02,10,3.30
2013,04,23,02,11,3.30
2013,04,23,02,12,3.30
2013,04,23,02,13,3.30
2013,04,23,02,14,3.20
2013,04,23,02,15,3.20
2013,04,23,02,16,3.20
2013,04,23,02,17,3.20
2013,04,23,02,18,3.20
2013,04,23,02,19,3.20
2013,04,23,02,20,3.20
2013,04,23,02,21,3.20
2013,04,23,02,22,3.10
2013,04,23,02,23,3.10
2013,04,23,02,24,3.10
2013,04,23,02,25,3.10
2013,04,23,02,26,3.10
2013,04,23,02,27,3.10
2013,04,23,02,28,3.10
2013,04,23,02,29,3.10
2013,04,23,02,30,3.10
2013,04,23,02,31,3.10
2013,04,23,02,32,3.10
2013,04,23,02,33,3.00
2013,04,23,02,34,3.00
2013,04,23,02,35,3.00
2013,04,23,02,36,2.90
2013,04,23,02,37,2.90
2013,04,23,02,38,2.90
2013,04,23,02,39,2.90
2013,04,23,02,40,2.90
2013,04,23,02,41,2.90
2013,04,23,02,42,3.00
2013,04,23,02,43,3.00
2013,04,23,02,44,3.00
2013,04,23,02,45,3.00
2013,04,23,02,46,2.90
2013,04,23,02,47,2.90
2013,04,23,02,48,2.90
2013,04,23,02,49,2.90
2013,04,23,02,50,2.90
2013,04,23,02,51,2.90
2013,04,23,02,52,2.90
2013,04,23,02,53,2.90
2013,04,23,02,54,2.80
2013,04,23,02,55,2.80
2013,04,23,02,56,2.80
2013,04,23,02,57,2.80
2013,04,23,02,58,2.80
2013,04,23,02,59,2.80
2013,04,23,03,00,2.80
2013,04,23,03,01,2.80
2013,04,23,03,02,2.70
2013,04,23,03,03,2.70
2013,04,23,03,04,2.70
2013,04,23,03,05,2.70
2013,04,23,03,06,2.70
2013,04,23,03,07,2.70
2013,04,23,03,08,2.70
2013,04,23,03,09,2.70
2013,04,23,03,10,2.70
2013,04,23,03,11,2.70
2013,04,23,03,12,2.60
2013,04,23,03,13,2.60
2013,04,23,03,14,2.70
2013,04,23,03,15,2.70
2013,04,23,03,16,2.70
2013,04,23,03,17,2.70
2013,04,23,03,18,2.70
2013,04,23,03,19,2.60
2013,04,23,03,20,2.60
2013,04,23,03,21,2.70
2013,04,23,03,22,2.70
2013,04,23,03,23,2.70
2013,04,23,03,24,2.70
2013,04,23,03,25,2.70
2013,04,23,03,26,2.70
2013,04,23,03,27,2.70
2013,04,23,03,28,2.70
2013,04,23,03,29,2.70
2013,04,23,03,30,2.70
2013,04,23,03,31,2.70
2013,04,23,03,32,2.70
2013,04,23,03,33,2.60
2013,04,23,03,34,2.60
2013,04,23,03,35,2.60
2013,04,23,03,36,2.60
2013,04,23,03,37,2.60
2013,04,23,03,38,2.60
2013,04,23,03,39,2.60
2013,04,23,03,40,2.60
2013,04,23,03,41,2.60
2013,04,23,03,42,2.60
2013,04,23,03,43,2.60
2013,04,23,03,44,2.60
2013,04,23,03,45,2.60
2013,04,23,03,46,2.60
2013,04,23,03,47,2.60
2013,04,23,03,48,2.60
2013,04,23,03,49,2.60
2013,04,23,03,50,2.60
2013,04,23,03,51,2.60
2013,04,23,03,52,2.60
2013,04,23,03,53,2.60
2013,04,23,03,54,2.60
2013,04,23,03,55,2.60
2013,04,23,03,56,2.60
2013,04,23,03,57,2.60
2013,04,23,03,58,2.60
2013,04,23,03,59,2.60
2013,04,23,04,00,2.60
2013,04,23,04,01,2.60
2013,04,23,04,02,2.60
2013,04,23,04,03,2.60
2013,04,23,04,04,2.60
2013,04,23,04,05,2.60
2013,04,23,04,06,2.60
2013,04,23,04,07,2.60
2013,04,23,04,08,2.60
2013,04,23,04,09,2.60
2013,04,23,04,10,2.60
2013,04,23,04,11,2.60
2013,04,23,04,12,2.60
2013,04,23,04,13,2.60
2013,04,23,04,14,2.60
2013,04,23,04,15,2.60
2013,04,23,04,16,2.60
2013,04,23,04,17,2.60
2013,04,23,04,18,2.60
2013,04,23,04,19,2.60
2013,04,23,04,20,2.60
2013,04,23,04,21,2.60
2013,04,23,04,22,2.60
2013,04,23,04,23,2.60
2013,04,23,04,24,2.60
2013,04,23,04,25,2.60
2013,04,23,04,26,2.60
2013,04,23,04,27,2.60
2013,04,23,04,28,2.60
2013,04,23,04,29,2.60
2013,04,23,04,30,2.70
2013,04,23,04,31,2.70
2013,04,23,04,32,2.70
2013,04,23,04,33,2.70
2013,04,23,04,34,2.70
2013,04,23,04,35,2.70
2013,04,23,04,36,2.80
2013,04,23,04,37,2.80
2013,04,23,04,38,2.80
2013,04,23,04,39,2.80
2013,04,23,04,40,2.80
2013,04,23,04,41,2.80
2013,04,23,04,42,2.80
2013,04,23,04,43,2.80
2013,04,23,04,44,2.80
2013,04,23,04,45,2.80
2013,04,23,04,46,2.80
2013,04,23,04,47,2.80
2013,04,23,04,48,2.80
2013,04,23,04,49,2.80
2013,04,23,04,50,2.80
2013,04,23,04,51,2.80
2013,04,23,04,52,2.80
2013,04,23,04,53,2.80
2013,04,23,04,54,2.90
2013,04,23,04,55,2.90
2013,04,23,04,56,2.90
2013,04,23,04,57,2.90
2013,04,23,04,58,2.90
2013,04,23,04,59,2.90
2013,04,23,05,00,2.90
2013,04,23,05,01,2.90
2013,04,23,05,02,2.90
2013,04,23,05,03,2.90
2013,04,23,05,04,2.90
2013,04,23,05,05,2.90
2013,04,23,05,06,2.90
2013,04,23,05,07,2.90
2013,04,23,05,08,2.90
2013,04,23,05,09,2.90
2013,04,23,05,10,2.90
2013,04,23,05,11,2.90
2013,04,23,05,12,2.90
2013,04,23,05,13,2.90
2013,04,23,05,14,2.90
2013,04,23,05,15,2.90
2013,04,23,05,16,3.00
2013,04,23,05,17,3.00
2013,04,23,05,18,2.90
2013,04,23,05,19,2.90
2013,04,23,05,20,2.90
2013,04,23,05,21,2.90
2013,04,23,05,22,2.90
2013,04,23,05,23,3.00
2013,04,23,05,24,3.00
2013,04,23,05,25,2.90
2013,04,23,05,26,3.00
2013,04,23,05,27,3.00
2013,04,23,05,28,3.00
2013,04,23,05,29,3.00
2013,04,23,05,30,3.00
2013,04,23,05,31,3.10
2013,04,23,05,32,3.10
2013,04,23,05,33,3.10
2013,04,23,05,34,3.10
2013,04,23,05,35,3.10
2013,04,23,05,36,3.10
2013,04,23,05,37,3.10
2013,04,23,05,38,3.10
2013,04,23,05,39,3.20
2013,04,23,05,40,3.20
2013,04,23,05,41,3.20
2013,04,23,05,42,3.20
2013,04,23,05,43,3.20
2013,04,23,05,44,3.20
2013,04,23,05,45,3.20
2013,04,23,05,46,3.30
2013,04,23,05,47,3.30
2013,04,23,05,48,3.30
2013,04,23,05,49,3.30
2013,04,23,05,50,3.30
2013,04,23,05,51,3.30
2013,04,23,05,52,3.40
2013,04,23,05,53,3.40
2013,04,23,05,54,3.40
2013,04,23,05,55,3.40
2013,04,23,05,56,3.50
2013,04,23,05,57,3.50
2013,04,23,05,58,3.50
2013,04,23,05,59,3.50
2013,04,23,06,00,3.60
2013,04,23,06,01,3.60
2013,04,23,06,02,3.60
2013,04,23,06,03,3.60
2013,04,23,06,04,3.70
2013,04,23,06,05,3.70
2013,04,23,06,06,3.70
2013,04,23,06,07,3.70
2013,04,23,06,08,3.70
2013,04,23,06,09,3.70
2013,04,23,06,10,3.70
2013,04,23,06,11,3.70
2013,04,23,06,12,3.70
2013,04,23,06,13,3.70
2013,04,23,06,14,3.70
2013,04,23,06,15,3.70
2013,04,23,06,16,3.70
2013,04,23,06,17,3.70
2013,04,23,06,18,3.70
2013,04,23,06,19,3.70
2013,04,23,06,20,3.70
2013,04,23,06,21,3.70
2013,04,23,06,22,3.70
2013,04,23,06,23,3.70
2013,04,23,06,24,3.80
2013,04,23,06,25,3.80
2013,04,23,06,26,3.80
2013,04,23,06,27,3.80
2013,04,23,06,28,3.80
2013,04,23,06,29,3.80
2013,04,23,06,30,3.80
2013,04,23,06,31,3.80
2013,04,23,06,32,3.80
2013,04,23,06,33,3.90
2013,04,23,06,34,3.90
2013,04,23,06,35,3.90
2013,04,23,06,36,3.90
2013,04,23,06,37,3.90
2013,04,23,06,38,3.90
2013,04,23,06,39,4.00
2013,04,23,06,40,4.00
2013,04,23,06,41,4.00
2013,04,23,06,42,4.00
2013,04,23,06,43,4.00
2013,04,23,06,44,4.00
2013,04,23,06,45,4.00
2013,04,23,06,46,4.10
2013,04,23,06,47,4.10
2013,04,23,06,48,4.10
2013,04,23,06,49,4.10
2013,04,23,06,50,4.10
2013,04,23,06,51,4.10
2013,04,23,06,52,4.20
2013,04,23,06,53,4.20
2013,04,23,06,54,4.20
2013,04,23,06,55,4.30
2013,04,23,06,56,4.30
2013,04,23,06,57,4.30
2013,04,23,06,58,4.30
2013,04,23,06,59,4.40
2013,04,23,07,00,4.40
2013,04,23,07,01,4.40
2013,04,23,07,02,4.40
2013,04,23,07,03,4.40
2013,04,23,07,04,4.40
2013,04,23,07,05,4.50
2013,04,23,07,06,4.50
2013,04,23,07,07,4.50
2013,04,23,07,08,4.50
2013,04,23,07,09,4.60
2013,04,23,07,10,4.60
2013,04,23,07,11,4.60
2013,04,23,07,12,4.70
2013,04,23,07,13,4.70
2013,04,23,07,14,4.80
2013,04,23,07,15,4.80
2013,04,23,07,16,4.80
2013,04,23,07,17,4.80
2013,04,23,07,18,4.80
2013,04,23,07,19,4.90
2013,04,23,07,20,4.90
2013,04,23,07,21,4.90
2013,04,23,07,22,5.00
2013,04,23,07,23,5.10
2013,04,23,07,24,5.10
2013,04,23,07,25,5.10
2013,04,23,07,26,5.10
2013,04,23,07,27,5.10
2013,04,23,07,28,5.20
2013,04,23,07,29,5.20
2013,04,23,07,30,5.30
2013,04,23,07,31,5.30
2013,04,23,07,32,5.40
2013,04,23,07,33,5.40
2013,04,23,07,34,5.50
2013,04,23,07,35,5.50
2013,04,23,07,36,5.60
2013,04,23,07,37,5.60
2013,04,23,07,38,5.70
2013,04,23,07,39,5.70
2013,04,23,07,40,5.80
2013,04,23,07,41,5.80
2013,04,23,07,42,5.90
2013,04,23,07,43,5.90
2013,04,23,07,44,5.90
2013,04,23,07,45,6.00
2013,04,23,07,46,6.10
2013,04,23,07,47,6.10
2013,04,23,07,48,6.10
2013,04,23,07,49,6.20
2013,04,23,07,50,6.20
2013,04,23,07,51,6.20
2013,04,23,07,52,6.30
2013,04,23,07,53,6.30
2013,04,23,07,54,6.40
2013,04,23,07,55,6.40
2013,04,23,07,56,6.40
2013,04,23,07,57,6.40
2013,04,23,07,58,6.50
2013,04,23,07,59,6.50
2013,04,23,08,00,6.60
2013,04,23,08,01,6.60
2013,04,23,08,02,6.60
2013,04,23,08,03,6.70
2013,04,23,08,04,6.70
2013,04,23,08,05,6.70
2013,04,23,08,06,6.70
2013,04,23,08,07,6.80
2013,04,23,08,08,6.80
2013,04,23,08,09,6.80
2013,04,23,08,10,6.90
2013,04,23,08,11,6.90
2013,04,23,08,12,7.00
2013,04,23,08,13,7.00
2013,04,23,08,14,7.10
2013,04,23,08,15,7.10
2013,04,23,08,16,7.20
2013,04,23,08,17,7.20
2013,04,23,08,18,7.20
2013,04,23,08,19,7.20
2013,04,23,08,20,7.30
2013,04,23,08,21,7.40
2013,04,23,08,22,7.40
2013,04,23,08,23,7.50
2013,04,23,08,24,7.50
2013,04,23,08,25,7.60
2013,04,23,08,26,7.60
2013,04,23,08,27,7.70
2013,04,23,08,28,7.70
2013,04,23,08,29,7.80
2013,04,23,08,30,7.80
2013,04,23,08,31,7.90
2013,04,23,08,32,8.00
2013,04,23,08,33,8.00
2013,04,23,08,34,8.10
2013,04,23,08,35,8.20
2013,04,23,08,36,8.20
2013,04,23,08,37,8.30
2013,04,23,08,38,8.40
2013,04,23,08,39,8.40
2013,04,23,08,40,8.50
2013,04,23,08,41,8.50
2013,04,23,08,42,8.60
2013,04,23,08,43,8.60
2013,04,23,08,44,8.70
2013,04,23,08,45,8.70
2013,04,23,08,46,8.80
2013,04,23,08,47,8.90
2013,04,23,08,48,8.90
2013,04,23,08,49,9.00
2013,04,23,08,50,9.10
2013,04,23,08,51,9.10
2013,04,23,08,52,9.20
2013,04,23,08,53,9.20
2013,04,23,08,54,9.30
2013,04,23,08,55,9.30
2013,04,23,08,56,9.40
2013,04,23,08,57,9.40
2013,04,23,08,58,9.50
2013,04,23,08,59,9.60
2013,04,23,09,00,9.60
2013,04,23,09,01,9.50
2013,04,23,09,02,9.60
2013,04,23,09,03,9.60
2013,04,23,09,04,9.60
2013,04,23,09,05,9.70
2013,04,23,09,06,9.70
2013,04,23,09,07,9.80
2013,04,23,09,08,9.80
2013,04,23,09,09,9.90
2013,04,23,09,10,9.90
2013,04,23,09,11,10.00
2013,04,23,09,12,10.10
2013,04,23,09,13,10.20
2013,04,23,09,14,10.20
2013,04,23,09,15,10.20
2013,04,23,09,16,10.20
2013,04,23,09,17,10.20
2013,04,23,09,18,10.20
2013,04,23,09,19,10.20
2013,04,23,09,20,10.10
2013,04,23,09,21,10.10
2013,04,23,09,22,10.00
2013,04,23,09,23,10.00
2013,04,23,09,24,9.90
2013,04,23,09,25,9.90
2013,04,23,09,26,9.80
2013,04,23,09,27,9.80
2013,04,23,09,28,9.80
2013,04,23,09,29,9.80
2013,04,23,09,30,9.80
2013,04,23,09,31,9.80
2013,04,23,09,32,9.80
2013,04,23,09,33,9.80
2013,04,23,09,34,9.80
2013,04,23,09,35,9.80
2013,04,23,09,36,9.80
2013,04,23,09,37,9.80
2013,04,23,09,38,9.80
2013,04,23,09,39,9.80
2013,04,23,09,40,9.80
2013,04,23,09,41,9.80
2013,04,23,09,42,9.90
2013,04,23,09,43,10.00
2013,04,23,09,44,10.10
2013,04,23,09,45,10.10
2013,04,23,09,46,10.20
2013,04,23,09,47,10.30
2013,04,23,09,48,10.40
2013,04,23,09,49,10.40
2013,04,23,09,50,10.40
2013,04,23,09,51,10.40
2013,04,23,09,52,10.30
2013,04,23,09,53,10.30
2013,04,23,09,54,10.40
2013,04,23,09,55,10.40
2013,04,23,09,56,10.40
2013,04,23,09,57,10.40
2013,04,23,09,58,10.40
2013,04,23,09,59,10.50
2013,04,23,10,00,10.50
2013,04,23,10,01,10.60
2013,04,23,10,02,10.60
2013,04,23,10,03,10.60
2013,04,23,10,04,10.70
2013,04,23,10,05,10.70
2013,04,23,10,06,10.70
2013,04,23,10,07,10.80
2013,04,23,10,08,10.80
2013,04,23,10,09,10.80
2013,04,23,10,10,10.80
2013,04,23,10,11,10.80
2013,04,23,10,12,10.80
2013,04,23,10,13,10.90
2013,04,23,10,14,10.90
2013,04,23,10,15,10.90
2013,04,23,10,16,10.90
2013,04,23,10,17,10.90
2013,04,23,10,18,10.90
2013,04,23,10,19,10.90
2013,04,23,10,20,10.90
2013,04,23,10,21,10.90
2013,04,23,10,22,10.90
2013,04,23,10,23,11.00
2013,04,23,10,24,11.00
2013,04,23,10,25,11.00
2013,04,23,10,26,11.10
2013,04,23,10,27,11.10
2013,04,23,10,28,11.20
2013,04,23,10,29,11.20
2013,04,23,10,30,11.20
2013,04,23,10,31,11.30
2013,04,23,10,32,11.30
2013,04,23,10,33,11.40
2013,04,23,10,34,11.40
2013,04,23,10,35,11.40
2013,04,23,10,36,11.40
2013,04,23,10,37,11.40
2013,04,23,10,38,11.40
2013,04,23,10,39,11.50
2013,04,23,10,40,11.50
2013,04,23,10,41,11.60
2013,04,23,10,42,11.60
2013,04,23,10,43,11.60
2013,04,23,10,44,11.60
2013,04,23,10,45,11.60
2013,04,23,10,46,11.70
2013,04,23,10,47,11.80
2013,04,23,10,48,11.90
2013,04,23,10,49,11.90
2013,04,23,10,50,11.90
2013,04,23,10,51,11.90
2013,04,23,10,52,11.90
2013,04,23,10,53,11.90
2013,04,23,10,54,11.80
2013,04,23,10,55,11.90
2013,04,23,10,56,11.90
2013,04,23,10,57,12.00
2013,04,23,10,58,12.10
2013,04,23,10,59,12.10
2013,04,23,11,00,12.10
2013,04,23,11,01,12.10
2013,04,23,11,02,12.00
2013,04,23,11,03,11.90
2013,04,23,11,04,11.90
2013,04,23,11,05,11.90
2013,04,23,11,06,11.90
2013,04,23,11,07,11.90
2013,04,23,11,08,11.90
2013,04,23,11,09,11.90
2013,04,23,11,10,11.90
2013,04,23,11,11,11.80
2013,04,23,11,12,11.80
2013,04,23,11,13,11.80
2013,04,23,11,14,11.80
2013,04,23,11,15,11.80
2013,04,23,11,16,11.80
2013,04,23,11,17,11.80
2013,04,23,11,18,11.70
2013,04,23,11,19,11.70
2013,04,23,11,20,11.70
2013,04,23,11,21,11.70
2013,04,23,11,22,11.70
2013,04,23,11,23,11.70
2013,04,23,11,24,11.70
2013,04,23,11,25,11.80
2013,04,23,11,26,11.80
2013,04,23,11,27,11.80
2013,04,23,11,28,11.80
2013,04,23,11,29,11.80
2013,04,23,11,30,11.80
2013,04,23,11,31,11.70
2013,04,23,11,32,11.70
2013,04,23,11,33,11.70
2013,04,23,11,34,11.80
2013,04,23,11,35,11.80
2013,04,23,11,36,11.80
2013,04,23,11,37,11.90
2013,04,23,11,38,11.90
2013,04,23,11,39,11.90
2013,04,23,11,40,11.90
2013,04,23,11,41,12.00
2013,04,23,11,42,11.90
2013,04,23,11,43,11.90
2013,04,23,11,44,11.90
2013,04,23,11,45,11.80
2013,04,23,11,46,11.80
2013,04,23,11,47,11.80
2013,04,23,11,48,11.80
2013,04,23,11,49,11.70
2013,04,23,11,50,11.80
2013,04,23,11,51,11.90
2013,04,23,11,52,12.00
2013,04,23,11,53,12.10
2013,04,23,11,54,12.20
2013,04,23,11,55,12.30
2013,04,23,11,56,12.40
2013,04,23,11,57,12.50
2013,04,23,11,58,12.60
2013,04,23,11,59,12.60
2013,04,23,12,00,12.70
2013,04,23,12,01,12.80
2013,04,23,12,02,12.80
2013,04,23,12,03,12.70
2013,04,23,12,04,12.70
2013,04,23,12,05,12.60
2013,04,23,12,06,12.60
2013,04,23,12,07,12.70
2013,04,23,12,08,12.80
2013,04,23,12,09,12.80
2013,04,23,12,10,12.80
2013,04,23,12,11,12.80
2013,04,23,12,12,12.80
2013,04,23,12,13,12.80
2013,04,23,12,14,12.80
2013,04,23,12,15,12.80
2013,04,23,12,16,12.80
2013,04,23,12,17,12.80
2013,04,23,12,18,12.70
2013,04,23,12,19,12.60
2013,04,23,12,20,12.70
2013,04,23,12,21,12.70
2013,04,23,12,22,12.70
2013,04,23,12,23,12.70
2013,04,23,12,24,12.70
2013,04,23,12,25,12.90
2013,04,23,12,26,12.90
2013,04,23,12,27,12.90
2013,04,23,12,28,12.90
2013,04,23,12,29,12.80
2013,04,23,12,30,12.80
2013,04,23,12,31,12.80
2013,04,23,12,32,12.90
2013,04,23,12,33,12.90
2013,04,23,12,34,12.90
2013,04,23,12,35,13.00
2013,04,23,12,36,13.10
2013,04,23,12,37,13.20
2013,04,23,12,38,13.20
2013,04,23,12,39,13.20
2013,04,23,12,40,13.10
2013,04,23,12,41,13.00
2013,04,23,12,42,13.00
2013,04,23,12,43,13.00
2013,04,23,12,44,13.10
2013,04,23,12,45,13.00
2013,04,23,12,46,12.90
2013,04,23,12,47,12.80
2013,04,23,12,48,12.90
2013,04,23,12,49,12.90
2013,04,23,12,50,12.80
2013,04,23,12,51,12.80
2013,04,23,12,52,12.80
2013,04,23,12,53,12.80
2013,04,23,12,54,12.80
2013,04,23,12,55,12.80
2013,04,23,12,56,12.80
2013,04,23,12,57,12.90
2013,04,23,12,58,12.90
2013,04,23,12,59,12.90
2013,04,23,13,00,13.00
2013,04,23,13,01,13.00
2013,04,23,13,02,13.10
2013,04,23,13,03,13.20
2013,04,23,13,04,13.20
2013,04,23,13,05,13.30
2013,04,23,13,06,13.30
2013,04,23,13,07,13.30
2013,04,23,13,08,13.30
2013,04,23,13,09,13.30
2013,04,23,13,10,13.30
2013,04,23,13,11,13.30
2013,04,23,13,12,13.30
2013,04,23,13,13,13.30
2013,04,23,13,14,13.30
2013,04,23,13,15,13.20
2013,04,23,13,16,13.10
2013,04,23,13,17,13.10
2013,04,23,13,18,13.20
2013,04,23,13,19,13.20
2013,04,23,13,20,13.20
2013,04,23,13,21,13.20
2013,04,23,13,22,13.10
2013,04,23,13,23,13.10
2013,04,23,13,24,13.10
2013,04,23,13,25,13.10
2013,04,23,13,26,13.10
2013,04,23,13,27,13.20
2013,04,23,13,28,13.20
2013,04,23,13,29,13.20
2013,04,23,13,30,13.10
2013,04,23,13,31,13.10
2013,04,23,13,32,13.10
2013,04,23,13,33,13.20
2013,04,23,13,34,13.20
2013,04,23,13,35,13.20
2013,04,23,13,36,13.20
2013,04,23,13,37,13.30
2013,04,23,13,38,13.30
2013,04,23,13,39,13.40
2013,04,23,13,40,13.40
2013,04,23,13,41,13.30
2013,04,23,13,42,13.40
2013,04,23,13,43,13.40
2013,04,23,13,44,13.40
2013,04,23,13,45,13.30
2013,04,23,13,46,13.40
2013,04,23,13,47,13.40
2013,04,23,13,48,13.40
2013,04,23,13,49,13.40
2013,04,23,13,50,13.40
2013,04,23,13,51,13.30
2013,04,23,13,52,13.20
2013,04,23,13,53,13.20
2013,04,23,13,54,13.20
2013,04,23,13,55,13.20
2013,04,23,13,56,13.20
2013,04,23,13,57,13.20
2013,04,23,13,58,13.30
2013,04,23,13,59,13.30
2013,04,23,14,00,13.30
2013,04,23,14,01,13.40
2013,04,23,14,02,13.50
2013,04,23,14,03,13.60
2013,04,23,14,04,13.60
2013,04,23,14,05,13.60
2013,04,23,14,06,13.50
2013,04,23,14,07,13.40
2013,04,23,14,08,13.30
2013,04,23,14,09,13.20
2013,04,23,14,10,13.20
2013,04,23,14,11,13.20
2013,04,23,14,12,13.30
2013,04,23,14,13,13.40
2013,04,23,14,14,13.40
2013,04,23,14,15,13.50
2013,04,23,14,16,13.50
2013,04,23,14,17,13.50
2013,04,23,14,18,13.40
2013,04,23,14,19,13.50
2013,04,23,14,20,13.60
2013,04,23,14,21,13.70
2013,04,23,14,22,13.80
2013,04,23,14,23,13.90
2013,04,23,14,24,14.00
2013,04,23,14,25,14.20
2013,04,23,14,26,14.20
2013,04,23,14,27,14.10
2013,04,23,14,28,14.00
2013,04,23,14,29,14.00
2013,04,23,14,30,13.90
2013,04,23,14,31,13.90
2013,04,23,14,32,13.80
2013,04,23,14,33,13.70
2013,04,23,14,34,13.60
2013,04,23,14,35,13.60
2013,04,23,14,36,13.50
2013,04,23,14,37,13.50
2013,04,23,14,38,13.50
2013,04,23,14,39,13.40
2013,04,23,14,40,13.50
2013,04,23,14,41,13.50
2013,04,23,14,42,13.50
2013,04,23,14,43,13.50
2013,04,23,14,44,13.50
2013,04,23,14,45,13.60
2013,04,23,14,46,13.70
2013,04,23,14,47,13.80
2013,04,23,14,48,13.80
2013,04,23,14,49,13.80
2013,04,23,14,50,13.90
2013,04,23,14,51,13.90
2013,04,23,14,52,13.90
2013,04,23,14,53,13.90
2013,04,23,14,54,13.90
2013,04,23,14,55,13.80
2013,04,23,14,56,13.70
2013,04,23,14,57,13.80
2013,04,23,14,58,13.80
2013,04,23,14,59,13.80
2013,04,23,15,00,13.70
2013,04,23,15,01,13.70
2013,04,23,15,02,13.70
2013,04,23,15,03,13.70
2013,04,23,15,04,13.70
2013,04,23,15,05,13.70
2013,04,23,15,06,13.70
2013,04,23,15,07,13.60
2013,04,23,15,08,13.60
2013,04,23,15,09,13.50
2013,04,23,15,10,13.50
2013,04,23,15,11,13.50
2013,04,23,15,12,13.60
2013,04,23,15,13,13.60
2013,04,23,15,14,13.70
2013,04,23,15,15,13.70
2013,04,23,15,16,13.80
2013,04,23,15,17,13.90
2013,04,23,15,18,14.00
2013,04,23,15,19,14.10
2013,04,23,15,20,14.20
2013,04,23,15,21,14.20
2013,04,23,15,22,14.10
2013,04,23,15,23,14.00
2013,04,23,15,24,14.00
2013,04,23,15,25,14.00
2013,04,23,15,26,13.80
2013,04,23,15,27,13.60
2013,04,23,15,28,13.40
2013,04,23,15,29,13.30
2013,04,23,15,30,13.20
2013,04,23,15,31,13.10
2013,04,23,15,32,13.10
2013,04,23,15,33,13.10
2013,04,23,15,34,13.10
2013,04,23,15,35,13.10
2013,04,23,15,36,13.10
2013,04,23,15,37,13.10
2013,04,23,15,38,13.10
2013,04,23,15,39,13.20
2013,04,23,15,40,13.30
2013,04,23,15,41,13.40
2013,04,23,15,42,13.60
2013,04,23,15,43,13.50
2013,04,23,15,44,13.40
2013,04,23,15,45,13.40
2013,04,23,15,46,13.30
2013,04,23,15,47,13.30
2013,04,23,15,48,13.40
2013,04,23,15,49,13.40
2013,04,23,15,50,13.50
2013,04,23,15,51,13.60
2013,04,23,15,52,13.60
2013,04,23,15,53,13.70
2013,04,23,15,54,13.70
2013,04,23,15,55,13.70
2013,04,23,15,56,13.70
2013,04,23,15,57,13.80
2013,04,23,15,58,13.90
2013,04,23,15,59,14.10
2013,04,23,16,00,14.20
2013,04,23,16,01,14.40
2013,04,23,16,02,14.50
2013,04,23,16,03,14.60
2013,04,23,16,04,14.50
2013,04,23,16,05,14.40
2013,04,23,16,06,14.30
2013,04,23,16,07,14.30
2013,04,23,16,08,14.30
2013,04,23,16,09,14.20
2013,04,23,16,10,14.10
2013,04,23,16,11,14.10
2013,04,23,16,12,14.10
2013,04,23,16,13,14.20
2013,04,23,16,14,14.20
2013,04,23,16,15,14.30
2013,04,23,16,16,14.40
2013,04,23,16,17,14.40
2013,04,23,16,18,14.40
2013,04,23,16,19,14.30
2013,04,23,16,20,14.20
2013,04,23,16,21,14.20
2013,04,23,16,22,14.20
2013,04,23,16,23,14.10
2013,04,23,16,24,14.00
2013,04,23,16,25,14.00
2013,04,23,16,26,13.90
2013,04,23,16,27,13.90
2013,04,23,16,28,13.80
2013,04,23,16,29,13.80
2013,04,23,16,30,13.70
2013,04,23,16,31,13.70
2013,04,23,16,32,13.70
2013,04,23,16,33,13.80
2013,04,23,16,34,13.90
2013,04,23,16,35,13.90
2013,04,23,16,36,13.90
2013,04,23,16,37,13.90
2013,04,23,16,38,14.00
2013,04,23,16,39,14.00
2013,04,23,16,40,14.10
2013,04,23,16,41,14.10
2013,04,23,16,42,14.20
2013,04,23,16,43,14.30
2013,04,23,16,44,14.30
2013,04,23,16,45,14.40
2013,04,23,16,46,14.40
2013,04,23,16,47,14.40
2013,04,23,16,48,14.30
2013,04,23,16,49,14.20
2013,04,23,16,50,14.10
2013,04,23,16,51,14.00
2013,04,23,16,52,13.90
2013,04,23,16,53,13.90
2013,04,23,16,54,14.00
2013,04,23,16,55,14.10
2013,04,23,16,56,14.10
2013,04,23,16,57,14.00
2013,04,23,16,58,14.00
2013,04,23,16,59,13.90
2013,04,23,17,00,13.90
2013,04,23,17,01,13.90
2013,04,23,17,02,13.90
2013,04,23,17,03,13.90
2013,04,23,17,04,13.90
2013,04,23,17,05,13.80
2013,04,23,17,06,13.80
2013,04,23,17,07,13.70
2013,04,23,17,08,13.60
2013,04,23,17,09,13.50
2013,04,23,17,10,13.50
2013,04,23,17,11,13.40
2013,04,23,17,12,13.40
2013,04,23,17,13,13.40
2013,04,23,17,14,13.50
2013,04,23,17,15,13.60
2013,04,23,17,16,13.60
2013,04,23,17,17,13.60
2013,04,23,17,18,13.70
2013,04,23,17,19,13.70
2013,04,23,17,20,13.70
2013,04,23,17,21,13.70
2013,04,23,17,22,13.80
2013,04,23,17,23,13.80
2013,04,23,17,24,13.90
2013,04,23,17,25,14.00
2013,04,23,17,26,14.10
2013,04,23,17,27,14.10
2013,04,23,17,28,14.10
2013,04,23,17,29,14.00
2013,04,23,17,30,13.80
2013,04,23,17,31,13.70
2013,04,23,17,32,13.60
2013,04,23,17,33,13.50
2013,04,23,17,34,13.40
2013,04,23,17,35,13.40
2013,04,23,17,36,13.50
2013,04,23,17,37,13.50
2013,04,23,17,38,13.50
2013,04,23,17,39,13.50
2013,04,23,17,40,13.50
2013,04,23,17,41,13.50
2013,04,23,17,42,13.50
2013,04,23,17,43,13.60
2013,04,23,17,44,13.60